This is the latest recevied weather packets stored in our database for station/object KO6LQJ. If no packets are shown the sender has not sent any weather packets the latest 1 day(s).
| Time | Temp. | Humidity | Pressure | Rain* | Wind** | Luminosity | Snow |
|---|---|---|---|---|---|---|---|
| 1778031463 | 17.22° C | 54% | 1016.4 hPa | 0 mm | 0 m/s | 26 W/m² | - |
| 1778031160 | 17.22° C | 54% | 1016.1 hPa | 0 mm | 0 m/s | 34 W/m² | - |
| 1778030857 | 17.22° C | 54% | 1016.2 hPa | 0 mm | 0 m/s | 35 W/m² | - |
| 1778030554 | 17.22° C | 54% | 1016.2 hPa | 0 mm | 0 m/s | 38 W/m² | - |
| 1778030251 | 17.78° C | 53% | 1016.2 hPa | 0 mm | 0 m/s | 33 W/m² | - |
| 1778029947 | 17.78° C | 53% | 1015.9 hPa | 0 mm | 0 m/s | 31 W/m² | - |
| 1778029646 | 17.78° C | 53% | 1016.2 hPa | 0 mm | 0 m/s | 40 W/m² | - |
| 1778029343 | 17.78° C | 54% | 1016 hPa | 0 mm | 0 m/s | 44 W/m² | - |
| 1778029040 | 17.78° C | 53% | 1016.2 hPa | 0 mm | 0 m/s | 57 W/m² | - |
| 1778028736 | 17.78° C | 52% | 1016.1 hPa | 0 mm | 0 m/s | 55 W/m² | - |
| 1778028432 | 17.78° C | 52% | 1016 hPa | 0 mm | 0 m/s | 59 W/m² | - |
| 1778028130 | 17.78° C | 52% | 1016.1 hPa | 0 mm | 0 m/s | 48 W/m² | - |
| 1778027826 | 17.78° C | 52% | 1016 hPa | 0 mm | 0 m/s | 58 W/m² | - |
| 1778027522 | 18.33° C | 52% | 1015.9 hPa | 0 mm | 0 m/s | 70 W/m² | - |
| 1778027218 | 18.33° C | 51% | 1016 hPa | 0 mm | 0 m/s | 79 W/m² | - |
| 1778026915 | 18.89° C | 50% | 1015.6 hPa | 0 mm | 0 m/s | 90 W/m² | - |
| 1778026610 | 18.89° C | 49% | 1015.8 hPa | 0 mm | 0 m/s | 130 W/m² | - |
| 1778026308 | 18.33° C | 49% | 1015.9 hPa | 0 mm | 0 m/s | 114 W/m² | - |
| 1778026005 | 18.89° C | 49% | 1015.9 hPa | 0 mm | 0 m/s | 75 W/m² | - |
| 1778025702 | 18.89° C | 48% | 1016 hPa | 0 mm | 0 m/s | 115 W/m² | - |
| 1778025400 | 18.89° C | 49% | 1015.8 hPa | 0 mm | 0 m/s | 143 W/m² | - |
| 1778025098 | 19.44° C | 48% | 1015.8 hPa | 0 mm | 0 m/s | 147 W/m² | - |
| 1778024794 | 18.33° C | 51% | 1015.8 hPa | 0 mm | 0 m/s | 135 W/m² | - |
| 1778024491 | 18.33° C | 51% | 1015.9 hPa | 0 mm | 0 m/s | 97 W/m² | - |
| 1778024188 | 18.89° C | 50% | 1015.7 hPa | 0 mm | 0 m/s | 119 W/m² | - |
* Rain latest hour (hover to see other rain measurements)
** Current wind speed in m/s (hover to see current wind gust speed)